ON7DE Weather Reports


time (UTC)temp
F
wind
direction
speed
knots
gust
knots
rain 1hr
in
rain 24hr
in
rain mn
in
humidity
%
barometer
mb
20260507182705 57 0 0.0 0.0 0.00 0.00 0.00 65 1016.0
20260507181803 58 40 0.9 0.9 0.00 0.00 0.00 64 1016.0
20260507181116 58 50 0.9 0.9 0.00 0.00 0.00 64 1016.0
20260507180006 58 71 1.7 3.5 0.00 0.00 0.00 63 1015.9
20260507175615 58 71 1.7 3.5 0.00 0.00 0.00 63 1016.0
20260507174503 58 47 1.7 2.6 0.00 0.00 0.00 64 1015.9
20260507173605 58 55 2.6 2.6 0.00 0.00 0.00 62 1015.8
20260507172704 58 34 1.7 3.5 0.00 0.00 0.00 62 1016.0
20260507171805 58 46 1.7 1.7 0.00 0.00 0.00 62 1015.7
20260507170903 58 50 0.9 1.7 0.00 0.00 0.00 62 1015.6
20260507170005 58 36 1.7 3.5 0.00 0.00 0.00 62 1016.0
20260507165406 58 53 1.7 2.6 0.00 0.00 0.00 62 1015.7
20260507164505 58 38 1.7 2.6 0.00 0.00 0.00 61 1015.9
20260507163605 58 37 1.7 2.6 0.00 0.00 0.00 61 1016.0
20260507162705 58 55 2.6 2.6 0.00 0.00 0.00 61 1015.8
20260507161803 58 55 3.5 3.5 0.00 0.00 0.00 60 1015.9
20260507160904 58 58 3.5 4.3 0.00 0.00 0.00 60 1015.9
20260507160004 58 61 3.5 5.2 0.00 0.00 0.00 61 1015.8
20260507155403 59 53 2.6 3.5 0.00 0.00 0.00 62 1015.7
20260507154505 59 54 2.6 3.5 0.00 0.00 0.00 60 1015.9
20260507153605 59 59 2.6 3.5 0.00 0.00 0.00 60 1015.7
20260507152913 59 59 2.6 3.5 0.00 0.00 0.00 59 1015.6
20260507151805 59 51 2.6 3.5 0.00 0.00 0.00 58 1015.9
20260507150910 59 43 1.7 2.6 0.00 0.00 0.00 59 1015.9
20260507150215 59 52 1.7 3.5 0.00 0.00 0.00 58 1015.9
20260507145617 59 40 3.5 4.3 0.00 0.00 0.00 59 1015.8
20260507144714 59 51 2.6 4.3 0.00 0.00 0.00 59 1015.7
20260507143609 59 60 2.6 3.5 0.00 0.00 0.00 57 1015.7
20260507142703 59 67 3.5 3.5 0.00 0.00 0.00 58 1015.6
20260507142016 59 58 1.7 2.6 0.00 0.00 0.00 57 1015.8
20260507140903 60 50 1.7 2.6 0.00 0.00 0.00 57 1015.8
20260507140006 60 33 2.6 2.6 0.00 0.00 0.00 57 1015.8
20260507135403 60 30 1.7 3.5 0.00 0.00 0.00 56 1015.9
20260507134503 60 47 1.7 3.5 0.00 0.00 0.00 57 1016.0
20260507133603 60 53 2.6 3.5 0.00 0.00 0.00 58 1016.0
20260507132705 60 22 1.7 2.6 0.00 0.00 0.00 57 1015.9
20260507131805 60 24 1.7 2.6 0.00 0.00 0.00 58 1016.0
20260507130903 60 38 2.6 3.5 0.00 0.00 0.00 60 1015.8
20260507130216 60 24 3.5 4.3 0.00 0.00 0.00 58 1016.0
20260507125403 60 352 1.7 3.5 0.00 0.00 0.00 58 1016.1
20260507124504 60 347 2.6 3.5 0.00 0.00 0.00 59 1015.9
20260507123604 60 272 1.7 2.6 0.00 0.00 0.00 62 1015.9
20260507122706 59 248 2.6 4.3 0.00 0.00 0.00 61 1015.7
20260507121805 59 233 2.6 3.5 0.00 0.00 0.00 62 1015.8
20260507120905 59 249 2.6 3.5 0.00 0.00 0.00 62 1015.8
20260507120217 59 254 2.6 3.5 0.00 0.00 0.00 62 1015.7
20260507115405 59 256 2.6 3.5 0.00 0.00 0.00 59 1015.7
20260507114716 59 268 1.7 2.6 0.00 0.00 0.00 62 1015.6
20260507113608 58 244 2.6 4.3 0.00 0.00 0.00 64 1015.9
20260507112703 59 270 1.7 2.6 0.00 0.00 0.00 61 1015.7
20260507111803 59 58 1.7 2.6 0.00 0.00 0.00 59 1015.8
20260507111115 59 87 1.7 2.6 0.00 0.00 0.00 55 1015.8
20260507110004 59 47 1.7 3.5 0.00 0.00 0.00 58 1015.8
20260507105405 59 82 2.6 4.3 0.00 0.00 0.00 59 1015.8
20260507104504 59 65 2.6 3.5 0.00 0.00 0.00 60 1015.9
20260507103604 62 92 2.6 3.5 0.00 0.00 0.00 59 1015.8
20260507102705 62 101 3.5 5.2 0.00 0.00 0.00 60 1015.9
20260507101803 62 70 2.6 3.5 0.00 0.00 0.00 62 1016.2
20260507100903 60 125 1.7 2.6 0.00 0.00 0.00 62 1016.0
20260507100004 59 82 2.6 5.2 0.00 0.00 0.00 64 1015.9
20260507095408 59 88 2.6 5.2 0.00 0.00 0.00 65 1016.0
20260507094503 59 64 2.6 4.3 0.00 0.00 0.00 68 1015.8
20260507093604 58 68 3.5 4.3 0.00 0.00 0.00 66 1015.8
20260507092704 58 57 3.5 4.3 0.00 0.00 0.00 67 1015.9
20260507092016 58 71 3.5 3.5 0.00 0.00 0.00 68 1015.8
20260507090903 58 75 1.7 3.5 0.00 0.00 0.00 71 1015.9
20260507090005 57 68 2.6 3.5 0.00 0.00 0.00 69 1016.0
20260507085405 56 73 3.5 3.5 0.00 0.00 0.00 70 1015.7
20260507084503 56 63 3.5 5.2 0.00 0.00 0.00 70 1015.6
20260507083608 55 56 3.5 5.2 0.00 0.00 0.00 71 1015.7
20260507082704 55 78 1.7 2.6 0.00 0.00 0.00 75 1015.5
20260507081803 54 62 0.9 2.6 0.00 0.00 0.00 76 1015.5
20260507081117 54 70 0.9 1.7 0.00 0.00 0.00 79 1015.7
20260507080004 53 33 0.9 2.6 0.00 0.00 0.00 81 1015.6
20260507075405 53 63 1.7 2.6 0.00 0.00 0.00 80 1015.5
20260507074505 54 6 0.9 1.7 0.00 0.00 0.00 81 1015.6
20260507073603 53 39 1.7 3.5 0.00 0.00 0.00 82 1015.5
20260507072703 53 28 0.9 1.7 0.00 0.00 0.00 83 1015.4
20260507071804 52 36 1.7 2.6 0.00 0.00 0.00 83 1015.3
20260507070905 52 50 1.7 2.6 0.00 0.00 0.00 72 1015.4
20260507070009 52 55 0.9 2.6 0.00 0.01 0.00 83 1015.2
20260507065617 52 63 0.9 2.6 0.00 0.01 0.00 83 1015.2
20260507064504 51 50 0.9 1.7 0.00 0.01 0.00 83 1015.2
20260507063603 51 55 1.7 2.6 0.00 0.01 0.00 83 1015.1
20260507062705 51 61 1.7 2.6 0.00 0.01 0.00 83 1015.3
20260507061803 51 56 1.7 2.6 0.00 0.01 0.00 84 1015.1
20260507060903 51 45 1.7 1.7 0.00 0.01 0.00 85 1015.1
20260507060004 51 11 1.7 1.7 0.00 0.01 0.00 86 1014.9
20260507055403 50 8 1.7 3.5 0.00 0.01 0.00 86 1014.9
20260507054505 50 157 0.0 1.7 0.00 0.01 0.00 89 1014.6
20260507053603 50 0 0.0 0.0 0.00 0.01 0.00 91 1014.9
20260507052704 49 0 0.0 0.0 0.00 0.01 0.00 92 1014.7
20260507051803 49 0 0.0 0.0 0.00 0.01 0.00 92 1014.6
20260507050908 49 0 0.0 0.0 0.00 0.01 0.00 92 1014.5
20260507050004 49 0 0.0 0.0 0.00 0.01 0.00 92 1014.3
20260507045405 49 0 0.0 0.0 0.00 0.01 0.00 92 1014.5
20260507044504 49 0 0.0 0.0 0.00 0.01 0.00 92 1014.4
20260507043605 49 0 0.0 0.0 0.00 0.01 0.00 92 1014.2
20260507042705 49 0 0.0 0.0 0.00 0.01 0.00 91 1014.2
20260507041805 49 0 0.0 0.0 0.00 0.01 0.00 91 1014.1
20260507040906 49 0 0.0 0.0 0.00 0.01 0.00 91 1014.1
20260507040004 49 0 0.0 0.0 0.00 0.01 0.00 91 1013.9
20260507035403 49 0 0.0 0.0 0.00 0.01 0.00 91 1014.0
20260507034503 49 0 0.0 0.0 0.00 0.01 0.00 91 1013.8
20260507033818 49 0 0.0 0.0 0.00 0.01 0.00 91 1013.7
20260507032704 49 0 0.0 0.0 0.00 0.01 0.00 91 1013.7
20260507031804 49 0 0.0 0.0 0.00 0.01 0.00 91 1013.6
20260507030904 49 0 0.0 0.0 0.00 0.01 0.00 92 1013.7
20260507030213 49 0 0.0 0.0 0.00 0.01 0.00 91 1013.6
20260507025405 49 0 0.0 0.0 0.00 0.01 0.00 91 1013.6
20260507024716 49 0 0.0 0.0 0.00 0.01 0.00 91 1013.5
20260507023606 49 0 0.0 0.0 0.00 0.01 0.00 91 1013.5
20260507022703 49 0 0.0 0.0 0.00 0.01 0.00 91 1013.5
20260507022019 49 0 0.0 0.0 0.00 0.01 0.00 90 1013.3
20260507020905 49 0 0.0 0.0 0.00 0.01 0.00 89 1013.3
20260507020005 49 0 0.0 0.0 0.00 0.01 0.00 89 1013.2
20260507015405 49 0 0.0 0.0 0.00 0.01 0.00 89 1013.4
20260507014717 49 0 0.0 0.0 0.00 0.01 0.00 89 1013.1
20260507013608 49 0 0.0 0.0 0.00 0.01 0.00 89 1013.2
20260507012704 49 0 0.0 0.0 0.00 0.01 0.00 89 1013.1
20260507011805 49 0 0.0 0.0 0.00 0.01 0.00 88 1013.2
20260507010903 49 0 0.0 0.0 0.00 0.01 0.00 87 1013.0
20260507010005 49 0 0.0 0.0 0.00 0.01 0.00 87 1013.1
20260507005404 49 0 0.0 0.0 0.00 0.01 0.00 87 1012.9
20260507004505 49 0 0.0 0.0 0.00 0.01 0.00 86 1013.3
20260507003815 49 0 0.0 0.0 0.00 0.01 0.00 86 1013.1
20260507002918 50 0 0.0 0.0 0.00 0.01 0.00 86 1013.3
20260507001805 49 0 0.0 0.0 0.00 0.01 0.00 84 1012.9
20260507000904 49 0 0.0 0.0 0.00 0.01 0.00 83 1012.9
20260507000005 49 0 0.0 0.0 0.00 0.01 0.00 83 1013.1
20260506235403 49 0 0.0 0.0 0.00 0.01 0.00 83 1013.1
20260506234508 50 0 0.0 0.0 0.00 0.01 0.00 82 1013.2
20260506233603 50 0 0.0 0.0 0.00 0.01 0.00 80 1013.0
20260506232703 51 0 0.0 0.0 0.00 0.01 0.00 77 1012.7
20260506232016 51 0 0.0 0.0 0.00 0.01 0.00 76 1012.9
20260506230903 51 0 0.0 0.0 0.00 0.01 0.00 77 1012.7
20260506230004 51 0 0.0 0.0 0.00 0.01 0.00 77 1012.7
20260506225406 51 0 0.0 0.0 0.00 0.01 0.00 76 1012.8
20260506224504 51 0 0.0 0.0 0.00 0.01 0.00 75 1012.7
20260506223603 51 0 0.0 0.0 0.00 0.01 0.00 75 1012.5
20260506222705 51 0 0.0 0.0 0.00 0.01 0.00 75 1012.5
20260506221805 51 0 0.0 0.0 0.00 0.01 0.00 75 1012.5
20260506220905 51 0 0.0 0.0 0.00 0.01 0.00 75 1012.5
20260506220221 51 0 0.0 0.0 0.00 0.01 0.00 74 1012.4
20260506215408 51 67 0.0 0.9 0.00 0.01 0.01 74 1012.5
20260506214504 52 67 0.9 2.6 0.00 0.01 0.01 74 1012.4
20260506213603 52 60 1.7 2.6 0.00 0.01 0.01 73 1012.5
20260506212704 52 60 1.7 2.6 0.00 0.01 0.01 74 1012.5
20260506212017 52 60 2.6 2.6 0.00 0.01 0.01 74 1012.2
20260506211114 52 70 1.7 2.6 0.00 0.01 0.01 75 1012.2
20260506210005 52 75 2.6 3.5 0.00 0.01 0.01 75 1012.0
20260506205403 52 71 2.6 3.5 0.00 0.01 0.01 75 1012.2
20260506204505 52 68 1.7 3.5 0.00 0.01 0.01 74 1012.0
20260506203818 52 57 1.7 2.6 0.00 0.01 0.01 74 1012.0
20260506202706 52 62 2.6 3.5 0.00 0.01 0.01 74 1011.9
20260506201805 52 69 1.7 3.5 0.00 0.01 0.01 75 1011.8
20260506200905 52 54 3.5 4.3 0.00 0.01 0.01 74 1011.8
20260506200008 52 72 3.5 3.5 0.00 0.01 0.01 73 1011.8
20260506195404 52 72 3.5 6.1 0.00 0.01 0.01 73 1011.5
20260506194505 52 59 5.2 8.7 0.00 0.01 0.01 72 1011.7
20260506193603 52 63 5.2 8.7 0.00 0.01 0.01 72 1011.8
20260506192705 52 61 5.2 8.7 0.00 0.01 0.01 73 1011.6
20260506191805 52 69 5.2 8.7 0.00 0.01 0.01 73 1011.2
20260506190906 52 48 5.2 6.1 0.00 0.01 0.01 74 1011.3
20260506190005 52 51 4.3 4.3 0.00 0.01 0.01 74 1011.1
20260506185405 52 50 4.3 5.2 0.00 0.01 0.01 74 1010.9
20260506184722 52 46 4.3 7.0 0.00 0.01 0.01 75 1010.8
20260506183604 52 50 6.1 6.1 0.00 0.01 0.01 74 1010.7